This demonstration page uses our WeatherBlox Daily Observations layout. Learn more.

Left ArrowRight Arrow

38.89511, -77.03637

Hourly Observations for February 20, 2017

Temp ( °F °C ) Dew Point ( °F °C ) Humidity (%) Winds ( mph kmh ) Pressure ( in mb ) Visibility ( mi km ) Precip ( " mm )
12:52 am 00:52 Mostly Cloudy 52 11.1 42 5.6 69 69 W 5 7 30.07 1018 10 16 0.00 0.00
1:52 am 01:52 Mostly Cloudy 49 9.4 42 5.6 77 77 W 6 9 30.08 1019 10 16 0.00 0.00
2:52 am 02:52 Mostly Clear 50 10 42 5.6 74 74 Calm 30.09 1019 10 16 0.00 0.00
3:52 am 03:52 Mostly Clear 47 8.3 42 5.6 83 83 N 5 7 30.11 1020 10 16 0.00 0.00
4:52 am 04:52 Clear 47 8.3 42 5.6 83 83 Calm 30.14 1021 10 16 0.00 0.00
5:52 am 05:52 Mostly Clear 44 6.7 41 5 89 89 S 3 6 30.15 1021 10 16 0.00 0.00
6:52 am 06:52 Mostly Clear 45 7.2 42 5.6 90 90 S 5 7 30.19 1022 10 16 0.00 0.00
7:52 am 07:52 Mostly Sunny 52 11.1 44 6.7 75 75 NNW 7 11 30.22 1023 10 16 0.00 0.00
8:52 am 08:52 Mostly Sunny 57 13.9 43 6.1 60 60 NNW 13 20 30.24 1024 10 16 0.00 0.00
9:52 am 09:52 Mostly Sunny 60 15.6 41 5 50 50 N 14 22 30.24 1024 10 16 0.00 0.00
10:52 am 10:52 Partly Cloudy 63 17.2 38 3.3 40 40 N 17 28 30.24 1024 10 16 0.00 0.00
11:52 am 11:52 Mostly Cloudy 64 17.8 37 2.8 37 37 NNW 12 19 30.24 1024 10 16 0.00 0.00
12:52 pm 12:52 Mostly Cloudy 65 18.3 36 2.2 34 34 NNW 12 19 30.21 1023 10 16 0.00 0.00
1:52 pm 13:52 Partly Cloudy 67 19.4 34 1.1 30 30 N 10 17 30.18 1022 10 16 0.00 0.00
2:52 pm 14:52 Partly Cloudy 67 19.4 33 0.6 28 28 WNW 5 7 30.19 1022 10 16 0.00 0.00
3:52 pm 15:52 Partly Cloudy 68 20 30 -1.1 24 24 N 9 15 30.19 1022 10 16 0.00 0.00
4:52 pm 16:52 Partly Cloudy 65 18.3 30 -1.1 27 27 N 10 17 30.21 1023 10 16 0.00 0.00
5:52 pm 17:52 Mostly Cloudy 59 15 34 1.1 39 39 NE 9 15 30.22 1024 10 16 0.00 0.00
6:52 pm 18:52 Mostly Clear 57 13.9 34 1.1 42 42 ENE 7 11 30.25 1024 10 16 0.00 0.00
7:52 pm 19:52 Clear 55 12.8 35 1.7 47 47 E 6 9 30.25 1024 10 16 0.00 0.00
8:52 pm 20:52 Partly Cloudy 53 11.7 33 0.6 47 47 Calm 30.28 1025 10 16 0.00 0.00
9:52 pm 21:52 Partly Cloudy 50 10 30 -1.1 46 46 NNE 7 11 30.29 1026 10 16 0.00 0.00
10:52 pm 22:52 Partly Cloudy 50 10 30 -1.1 46 46 NE 8 13 30.30 1026 10 16 0.00 0.00
11:52 pm 23:52 Partly Cloudy 49 9.4 29 -1.7 46 46 Calm 30.32 1027 10 16 0.00 0.00

Powered by AerisWeather